This demonstration page uses our WeatherBlox Daily Observations layout. Learn more.

Left ArrowRight Arrow

Hourly Observations for August 25, 2021

Temp ( °F °C ) Dew Point ( °F °C ) Humidity (%) Winds ( mph kmh ) Pressure ( in mb ) Visibility ( mi km ) Precip ( " mm )
12:56 am 00:56 Clear 78 25.6 73 22.8 85 85 E 14 22 29.86 1011 10 16 0.00 0.00
1:56 am 01:56 Clear 76 24.4 70 21.1 82 82 ENE 13 20 29.89 1012 10 16 0.00 0.00
2:56 am 02:56 Clear 72 22.2 67 19.4 84 84 NNE 8 13 29.91 1013 10 16 0.00 0.00
3:56 am 03:56 Clear 71 21.7 68 20 90 90 N 10 17 29.93 1013 10 16 0.00 0.00
4:56 am 04:56 Clear 69 20.6 66 18.9 90 90 NNE 12 19 29.94 1014 10 16 0.00 0.00
5:56 am 05:56 Clear 68 20 65 18.3 90 90 N 13 20 29.95 1014 10 16 0.00 0.00
6:56 am 06:56 Clear 67 19.4 65 18.3 93 93 N 13 20 29.98 1015 10 16 0.00 0.00
7:30 am 07:30 Partly Cloudy 68 20 66 19 94 94 N 14 22 29.99 1015 8 13 0.00 0.00
7:39 am 07:39 Mostly Cloudy 68 20 66 19 94 94 NNE 15 24 30.00 1016 8 13 0.00 0.00
7:56 am 07:56 Cloudy 68 20 67 19.4 96 96 NNE 14 22 30.03 1017 7 11 0.00 0.00
8:56 am 08:56 Mostly Sunny 71 21.7 67 19.4 87 87 NNE 16 26 30.03 1017 10 16 0.00 0.00
9:27 am 09:27 Mostly Cloudy 73 23 68 20 83 83 N 16 26 30.02 1017 9 14 0.00 0.00
9:56 am 09:56 Mostly Cloudy 74 23.3 68 20 82 82 NNE 16 26 30.07 1018 10 16 0.00 0.00
10:54 am 10:54 Partly Cloudy 75 24 68 20 78 78 NE 16 26 30.03 1017 10 16 0.00 0.00
10:56 am 10:56 Partly Cloudy 75 23.9 68 20 79 79 NE 16 26 30.07 1018 10 16 0.00 0.00
11:22 am 11:22 Mostly Cloudy 79 26 70 21 74 74 NE 15 24 30.01 1016 10 16 0.00 0.00
11:56 am 11:56 Mostly Cloudy 78 25.6 70 21.1 76 76 NE 10 17 30.07 1018 10 16 0.00 0.00
12:56 pm 12:56 Cloudy 80 26.7 71 21.7 74 74 NE 13 20 30.06 1018 10 16 0.00 0.00
1:56 pm 13:56 Partly Cloudy 83 28.3 72 22.2 70 70 ENE 13 20 30.04 1017 10 16 0.00 0.00
2:06 pm 14:06 Mostly Cloudy 82 28 72 22 70 70 ENE 15 24 29.97 1015 10 16 0.00 0.00
2:19 pm 14:19 Partly Cloudy 84 29 72 22 66 66 E 16 26 29.95 1014 10 16 0.00 0.00
2:34 pm 14:34 Mostly Cloudy 84 29 72 22 66 66 ENE 17 28 29.94 1014 10 16 0.00 0.00
2:56 pm 14:56 Partly Cloudy 85 29.4 72 22.2 65 65 ENE 10 17 30.04 1017 10 16 0.00 0.00
3:56 pm 15:56 Mostly Cloudy 85 29.4 72 22.2 65 65 ENE 14 22 30.04 1017 10 16 0.00 0.00
4:56 pm 16:56 Mostly Cloudy 83 28.3 72 22.2 70 70 E 12 19 30.04 1017 10 16 0.00 0.00
5:56 pm 17:56 Cloudy 83 28.3 72 22.2 70 70 E 17 28 30.02 1017 10 16 0.00 0.00
6:56 pm 18:56 Cloudy 81 27.2 73 22.8 77 77 NE 9 15 30.06 1018 10 16 0.00 0.00
7:56 pm 19:56 Sunny 79 26.1 72 22.2 79 79 E 17 28 30.01 1016 10 16 0.00 0.00
8:56 pm 20:56 Clear 77 25 72 22.2 85 85 E 15 24 30.02 1017 10 16 0.00 0.00
9:56 pm 21:56 Clear 77 25 72 22.2 85 85 E 15 24 30.02 1017 10 16 0.00 0.00
10:56 pm 22:56 Clear 75 23.9 71 21.7 88 88 E 10 17 30.03 1017 10 16 0.00 0.00
11:56 pm 23:56 Clear 75 23.9 71 21.7 88 88 ESE 12 19 30.03 1017 10 16 0.00 0.00

Powered by AerisWeather